Regional Weather Roundup
Issued by NWS

Home | Current Version | Previous Version | Graphics & Text | Print | Product List | Glossary On
Versions: 1 2 3 4 5 6 7 8 9 10 11 12 13 14 15 16 17 18 19 20 21 22 23 24 25 26 27 28 29 30 31 32 33 34 35 36 37 38 39 40 41 42 43 44 45 46 47 48 49 50
884
ASUS43 KLOT 291004
RWRIL

ILLINOIS REGIONAL WEATHER ROUNDUP
NATIONAL WEATHER SERVICE CHICAGO/ROMEOVILLE IL
500 AM CDT FRI JUL 29 2016

NOTE: "FAIR" INDICATES FEW OR NO CLOUDS BELOW 12,000 FEET WITH NO
SIGNIFICANT WEATHER AND/OR OBSTRUCTIONS TO VISIBILITY.

* THESE STATIONS ARE NOT UNDER NWS QUALITY CONTROL. THEY ALSO MAY NOT
  REPORT WEATHER SUCH AS PRECIPITATION OR FOG.

ILZ001-002-007-009-015-016-024-291100-
NORTHWEST ILLINOIS

CITY           SKY/WX    TMP DP  RH WIND       PRES   REMARKS
MOLINE         CLOUDY    71  67  87 N3        29.90F
STERLING*      CLOUDY    69  68  96 NE8       29.92R FOG
SAVANNA*       CLOUDY    67  66  94 NE8       29.91F
$$

ILZ003-004-008-010-011-017-018-291100-
NORTH CENTRAL ILLINOIS

CITY           SKY/WX    TMP DP  RH WIND       PRES   REMARKS
ROCKFORD       CLOUDY    69  64  84 N8        29.94S
FREEPORT*      CLOUDY    65  63  92 NE6       29.95S
ROCHELLE*      CLOUDY    67  67  99 NE8       29.93S FOG
DE KALB*       FOG       68  67  99 N5        29.94R VSB 1/2
$$

ILZ005-006-012>014-019>023-291100-
NORTHEAST ILLINOIS

CITY           SKY/WX    TMP DP  RH WIND       PRES   REMARKS
CHICAGO-OHARE  MOCLDY    70  68  93 N3        29.91S
CHICAGO-MIDWAY MOCLDY    71  68  90 NW3       29.91R
AURORA         CLOUDY    71  69  93 NE5       29.92S FOG
LANSING*       CLEAR     68  66  92 CALM      29.91S
WAUKEGAN       CLOUDY    69  68  96 N3        29.92S
DUPAGE AIRPORT CLOUDY    70  68  93 NE6       29.92S FOG
KANKAKEE*      CLOUDY    68  67  97 CALM      29.91S FOG
WHEELING       PTCLDY    70  68  93 N6        29.93R
MORRIS*        FOG       71  70  97 CALM      29.90S VSB 1
NORTHERLY ISL    N/A     73  69  87 E5          N/A
$$

LMZ740>746-291100-
SOUTHERN LAKE MICHIGAN

STATION/POSITION SKY/WX   TEMP    WIND        PRES    VSBY  WAVE
                          AIR SEA DIR/SP/G                  HT/PER
                          (F)     (DEG/KT/KT) (MB)    (MI)  (FT/S)
SOUTHERN BUOY              73 75   70/ 12/ 14 1012.3          2/ 6
WILMETTE HARBOR            74 72  110/  6/  8   N/A           3/ 6
HARRISON CRIB              75      60/  8/  9   N/A
BURNHAM HARBOR             71     330/  3/  6   N/A
CALUMET HARBOR             73      30/  2/  4 1012.1F
BURNS HARBOR               73      60/  8/ 12 1013.2S
MICHIGAN CITY              72      50/  4/  5   N/A
MICHIGAN CITY 6N           74 77   60/  6/  8   N/A           2/ 6
ST. JOSEPH                 71 77   80/  8/ 10 1012.3F         2
$$

ILZ025>027-034>036-040-047-049-050-058-095>099-291100-
WEST-CENTRAL ILLINOIS

CITY           SKY/WX    TMP DP  RH WIND       PRES   REMARKS
QUINCY         CLEAR     66  66 100 NW3       29.92S
GALESBURG*     FOG       66  66  98 NW5       29.91F VSB 1/4
MACOMB*        PTCLDY    65  65  99 NW3       29.94S
JACKSONVILLE*  CLEAR     65  64  96 CALM      29.93R
PITTSFIELD*    PTCLDY    67  66  95 CALM      29.94R
$$

ILZ028>032-037-038-041>044-048-051>054-059>061-291100-
CENTRAL ILLINOIS

CITY           SKY/WX    TMP DP  RH WIND       PRES   REMARKS
PONTIAC        LGT RAIN  71  71 100 NE3       29.90S VSB 1/4
BLOOMINGTON    PTCLDY    69  67  93 W5        29.92R
DECATUR        CLEAR     71  67  87 CALM      29.91R
PEORIA         CLEAR     68  67  96 NW5       29.90S
LACON*         CLOUDY    67  66  97 CALM      29.89F FOG
LINCOLN*       CLEAR     68  68  99 CALM      29.91R
SPRINGFIELD    CLEAR     69  67  93 NW5       29.92R
TAYLORVILLE    CLEAR     67  67 100 MISG      29.92R FOG
$$

ILZ033-039-045-046-055>057-062-063-291100-
EAST-CENTRAL ILLINOIS

CITY           SKY/WX    TMP DP  RH WIND       PRES   REMARKS
CHAMPAIGN      FOG       67  66  97 W5        29.91R VSB 1/4
RANTOUL*       MOCLDY    70  68  94 W3        29.90R FOG
MATTOON        CLEAR     67  65  93 W3        29.90S
PARIS*         CLEAR     65  65 100 CALM      29.91S FOG
$$

ILZ079-100>102-291100-
SOUTHWEST ILLINOIS

CITY           SKY/WX    TMP DP  RH WIND       PRES   REMARKS
ALTON          PTCLDY    71  68  92 NW3       29.92S
CAHOKIA*       PTCLDY    74  70  87 CALM      29.91R
SPARTA*        MOCLDY    73  72  97 CALM      29.92R
$$

ILZ064>066-069>071-074>076-080>082-084>086-088>090-092>094-291100-
SOUTH-CENTRAL ILLINOIS

CITY           SKY/WX    TMP DP  RH WIND       PRES   REMARKS
CARBONDALE     MOCLDY    71  69  93 CALM      29.91R
CAIRO*         MOCLDY    73  72  97 CALM      29.91S
EFFINGHAM*     CLEAR     67  67 100 CALM      29.93R FOG
MARION         CLOUDY    72  72 100 CALM      29.92R
MT. VERNON     CLOUDY    70  64  83 MISG      29.90S
CENTRALIA*     MOCLDY    70  70 100 CALM      29.90S FOG
SALEM*         CLEAR     69  68  94 CALM      29.91R FOG
METROPOLIS*    MOCLDY    74  72  96 CALM      29.92S
$$

ILZ067-068-072-073-078-083-087-091-291100-
SOUTHEAST ILLINOIS

CITY           SKY/WX    TMP DP  RH WIND       PRES   REMARKS
LAWRENCEVILLE  CLEAR     68  68 100 S3        29.90S FOG
FLORA*         FOG       69  68  98 CALM      29.91R VSB 1/2
FAIRFIELD*     FOG       69  69 100 CALM      29.89S VSB 1/2
HARRISBURG*    MOCLDY    71  71 100 CALM      29.91S FOG
ROBINSON*      FOG       68  68 100 CALM      29.91S VSB 1/4
CARMI*         PTCLDY    69  69 100 CALM      29.91R FOG
$$

ABBREVIATIONS USED IN REMARKS
   TC - TEMPERATURE IN CELSIUS
  WCI - WIND CHILL INDEX
   HX - HEAT INDEX
  VSB - VISIBILITY
$$





USA.gov is the U.S. government's official web portal to all federal, state and local government web resources and services.